Location: Brno
(49.2000°N, 16.6330°E)
Time: 04:00:37
(UTC+02:00)

Cosmos 2227 - Visible Passes

Search period start: 15 September 2014 00:00
Search period end: 25 September 2014 00:00
Orbit: 834 x 863 km, 71.0° (Epoch: 14 September)

Date Brightness Start Highest point End Pass type
(mag) Time Alt. Az. Time Alt. Az. Time Alt. Az.
15 Sep 5.8 00:11:44 10° NNW 00:14:38 31° NW 00:14:38 31° NW visible
15 Sep 5.7 22:14:53 10° NNW 22:19:39 26° NE 22:19:46 26° NE visible
15 Sep 5.7 23:58:42 10° NNW 00:01:43 32° NW 00:01:43 32° NW visible
16 Sep 5.6 22:01:51 10° NNW 22:06:36 26° NE 22:06:52 25° NE visible
16 Sep 5.7 23:45:41 10° NNW 23:48:48 34° NW 23:48:48 34° NW visible
17 Sep 5.6 21:48:50 10° NNW 21:53:34 25° NE 21:53:59 25° NE visible
17 Sep 5.6 23:32:39 10° NNW 23:35:55 35° NW 23:35:55 35° NW visible
18 Sep 5.6 21:35:49 10° NNW 21:40:32 25° NE 21:41:07 25° NE visible
18 Sep 5.5 23:19:37 10° NNW 23:23:04 38° NW 23:23:04 38° NW visible
19 Sep 5.6 21:22:48 10° NNW 21:27:29 25° NE 21:28:17 24° NE visible
19 Sep 5.3 23:06:35 10° NNW 23:10:13 41° NW 23:10:13 41° NW visible
20 Sep 5.6 21:09:46 10° NNW 21:14:26 25° NE 21:15:28 23° ENE visible
20 Sep 5.2 22:53:33 10° NNW 22:57:25 44° NW 22:57:25 44° NW visible
21 Sep 5.5 20:56:45 10° NNW 21:01:24 24° NE 21:02:41 23° ENE visible
21 Sep 5.0 22:40:31 10° NNW 22:44:37 48° NW 22:44:37 48° NW visible
22 Sep 5.6 20:43:44 10° NNW 20:48:21 24° NE 20:49:55 22° ENE visible
22 Sep 4.8 22:27:30 10° NNW 22:31:51 53° NW 22:31:51 53° NW visible
23 Sep 6.9 00:13:38 10° WNW 00:13:48 10° WNW 00:13:48 10° WNW visible
23 Sep 5.6 20:30:42 10° NNW 20:35:18 24° NE 20:37:10 20° ENE visible
23 Sep 4.6 22:14:28 10° NNW 22:19:07 60° NW 22:19:07 60° NW visible
24 Sep 6.8 00:00:33 10° WNW 00:01:04 11° WNW 00:01:04 11° WNW visible
24 Sep 5.6 20:17:41 10° NNW 20:22:16 24° NE 20:24:28 19° ENE visible
24 Sep 4.4 22:01:26 10° NNW 22:06:25 67° NW 22:06:25 67° NW visible
24 Sep 6.8 23:47:28 10° WNW 23:48:22 12° WNW 23:48:22 12° WNW visible
